Namest Nad Oslav, Czech Republic

2:29 PM CET on December 08, 2019 (GMT +0100)
Namest

Weather History for LKNA - November, 2019

Change the Weather History Date:

Thursday, November 14, 2019

  Actual Average (WUND) Record (WUND)
Temperature  
Mean Temperature 34 °F -  
Max Temperature 39 °F - - (-1)
Min Temperature 30 °F - - (-1)
Degree Days  
Heating Degree Days 30    
Moisture  
Dew Point 33 °F    
Average Humidity 93    
Maximum Humidity 100    
Minimum Humidity 70    
Precipitation  
Precipitation 0.00 in - - ()
Sea Level Pressure  
Sea Level Pressure 29.82 in    
Wind  
Wind Speed 6 mph ()    
Max Wind Speed 18 mph    
Max Gust Speed -    
Visibility 3.1 miles    
Events Fog    
Averages and records for this station are not official NWS values.
T = Trace of Precipitation, MM = Missing Value Source: Averaged Metar Reports

Daily Weather History Graph

Daily Weather History Graph

Search for Another Location

Airport or City:

Astronomy

Nov. 14, 2019 Rise Set
Actual Time 7:03 AM CET 4:15 PM CET
Civil Twilight 6:28 AM CET 4:50 PM CET
Nautical Twilight 5:49 AM CET 5:29 PM CET
Astronomical Twilight 5:12 AM CET 6:06 PM CET
Moon 5:42 PM CET (11/14) 8:45 AM CET (11/14)
Length of Visible Light 10h 22m
Length of Day
9h 12m
Waning Gibbous, 96% of the Moon is Illuminated
Nov 14
Waning Gibbous
Nov 19
Last Quarter
Nov 26
New
Dec 4
First Quarter
Dec 12
Full

Hourly Weather History & Observations

Time (CET) Temp. Windchill Dew Point Humidity Pressure Visibility Wind Dir Wind Speed Gust Speed Precip Events Conditions
12:00 AM 32.0 °F 25.6 °F 32.0 °F 100% 29.74 in - West 6.9 mph - N/A   Clear
1:00 AM 32.0 °F 27.5 °F 32.0 °F 100% 29.74 in - WNW 4.6 mph - N/A   Clear
2:00 AM 32 °F - 29 °F 85% 29.85 in 9 mi North 4.5 mph - -   Clear
2:00 AM 32.0 °F 28.7 °F 32.0 °F 100% 29.77 in - WNW 3.5 mph - N/A   Clear
3:10 AM 32.0 °F 28.7 °F 32.0 °F 100% 29.77 in 3.1 mi East 3.5 mph - N/A   Mostly Cloudy
3:26 AM 32.0 °F 28.7 °F 32.0 °F 100% 29.77 in 1.9 mi ESE 3.5 mph - N/A   Mostly Cloudy
3:30 AM 32.0 °F 28.7 °F 32.0 °F 100% 29.77 in 0.9 mi ESE 3.5 mph - N/A   Mostly Cloudy
4:00 AM 31 °F - 29 °F 89% 29.86 in 1 mi East 2.2 mph - -   Mist
4:00 AM 32.0 °F - 32.0 °F 100% 29.77 in 0.6 mi ESE 2.3 mph - N/A   Partly Cloudy
5:00 AM 30 °F - 28 °F 89% 29.87 in 0 mi East 4.5 mph - - Fog Heavy Fog
5:00 AM 30.2 °F 25.4 °F 30.2 °F 100% 29.77 in 0.2 mi East 4.6 mph - N/A Fog Light Freezing Fog
6:00 AM 31 °F - 29 °F 87% 29.86 in 0 mi East 6.7 mph - - Fog Heavy Fog
6:00 AM 32.0 °F 27.5 °F 32.0 °F 100% 29.77 in 0.3 mi East 4.6 mph - N/A Fog Fog
7:00 AM 31 °F - 28 °F 86% 29.89 in 0 mi East 4.5 mph - - Fog Heavy Fog
7:00 AM 32.0 °F 27.5 °F 32.0 °F 100% 29.80 in 0.1 mi East 4.6 mph - N/A Fog Light Freezing Fog
8:00 AM 32.0 °F 25.6 °F 32.0 °F 100% 29.80 in 0.1 mi East 6.9 mph - N/A Fog Light Freezing Fog
9:00 AM 32.0 °F 25.6 °F 32.0 °F 100% 29.83 in 0.1 mi East 6.9 mph - N/A Fog Light Freezing Fog
10:00 AM 32 °F - 30 °F 88% 29.92 in 0 mi East 6.7 mph - - Fog Heavy Fog
10:00 AM 32.0 °F 24.2 °F 32.0 °F 100% 29.83 in 0.1 mi ESE 9.2 mph - N/A Fog Light Freezing Fog
11:00 AM 33 °F - 30 °F 86% 29.90 in 0 mi East 8.9 mph - - Fog Heavy Fog
11:00 AM 33.8 °F 26.4 °F 33.8 °F 100% 29.83 in 0.1 mi East 9.2 mph - N/A Fog Fog
12:00 PM 34 °F - 32 °F 89% 29.89 in 1 mi East 8.9 mph - - Fog Light Fog
12:00 PM 33.8 °F 26.4 °F 33.8 °F 100% 29.83 in 0.9 mi East 9.2 mph - N/A   Mostly Cloudy
12:15 PM 33.8 °F 25.8 °F 33.8 °F 100% 29.80 in 2.2 mi East 10.4 mph - N/A   Mostly Cloudy
12:26 PM 33.8 °F 25.8 °F 33.8 °F 100% 29.80 in 4.3 mi East 10.4 mph - N/A   Mostly Cloudy
1:00 PM 35 °F - 33 °F 87% 29.88 in 5 mi East 6.7 mph - -   Mist
2:00 PM 37 °F - 33 °F 80% 29.85 in 6 mi East 8.9 mph - -   Mist
2:00 PM 37.4 °F 30.3 °F 37.4 °F 100% 29.80 in 5.6 mi East 10.4 mph - N/A   Mostly Cloudy
5:00 PM 38 °F - 35 °F 83% 29.84 in 6 mi East 6.7 mph - -   Mostly Cloudy
5:00 PM 39.2 °F 34.2 °F 39.2 °F 100% 29.77 in 6.2 mi East 6.9 mph - N/A   Mostly Cloudy
6:00 PM 39.2 °F 33.6 °F 37.4 °F 93% 29.77 in 6.2 mi East 8.1 mph - N/A   Mostly Cloudy
7:00 PM 37.4 °F 30.3 °F 37.4 °F 100% 29.77 in 6.2 mi East 10.4 mph - N/A   Partly Cloudy
9:00 PM 38 °F - 33 °F 74% 29.85 in 9 mi East 13.4 mph - -   Scattered Clouds
9:00 PM 39.2 °F 31.2 °F 35.6 °F 87% 29.77 in 6.2 mi East 13.8 mph - N/A   Partly Cloudy
10:00 PM 38 °F - 33 °F 74% 29.86 in 9 mi ESE 13.4 mph - -   Scattered Clouds
10:00 PM 39.2 °F 30.2 °F 35.6 °F 87% 29.80 in 6.2 mi ESE 17.3 mph - N/A   Partly Cloudy
11:00 PM 39 °F - 33 °F 70% 29.84 in 9 mi East 15.7 mph - -  
11:00 PM 39.2 °F 29.8 °F 35.6 °F 87% 29.80 in - ESE 18.4 mph - N/A   Clear